Probability
10 11 8 3 1 0 0 0 0 0 0 0 0 0 0 0 0 0 0 0 0 0 0 0 0 0 0 0 0 0 0 0 0 0 0 0 0 0 0 0 0 0 0 0 0 0 1 2 3
6 6 5 2 0 0 0 0 0 0 0 0 0 0 0 0 0 0 0 0 0 0 0 0 0 0 0 0 0 0 0 0 0 0 0 0 0 0 0 0 0 0 0 0 0 0 1 1 1
5 4 2 1 0 0 0 0 0 0 0 0 0 0 0 0 0 0 0 0 0 0 0 0 0 0 0 0 1 0 0 0 0 0 0 0 0 0 0 0 0 0 0 0 0 0 0 0 0
5 3 1 0 0 0 0 0 0 0 0 0 0 0 0 0 0 0 0 0 0 0 0 0 0 0 0 0 0 0 0 0 0 0 0 0 0 0 0 0 0 0 0 0 0 0 0 0 0
4 2 1 0 0 0 0 0 0 0 0 0 0 0 0 0 0 0 0 0 0 0 0 0 0 0 0 0 0 0 0 0 0 0 0 0 0 0 0 0 0 0 0 0 0 0 0 0 0
3 1 0 0 0 0 0 0 0 0 0 0 0 0 0 0 0 0 0 0 0 0 0 0 0 0 0 0 1 1 0 0 0 0 0 0 0 0 0 0 0 0 0 0 0 0 0 0 0
2 1 0 0 0 0 0 0 0 0 0 0 0 0 0 0 0 0 0 0 0 0 0 0 0 0 0 1 2 2 1 0 0 0 0 0 0 0 0 0 0 0 0 0 0 0 0 0 0
3 2 0 0 0 0 0 0 0 0 0 0 0 0 0 0 0 0 0 0 0 0 0 0 0 0 0 1 2 2 1 1 1 0 0 0 0 0 0 0 0 0 0 0 0 0 0 0 0
2 1 0 0 0 0 0 0 0 0 0 0 0 0 0 0 0 0 0 0 0 0 0 0 0 0 0 0 1 2 2 2 1 0 0 0 0 0 0 1 1 0 0 0 0 0 0 0 0
2 1 0 0 0 0 0 0 0 0 0 0 0 0 0 0 0 0 0 0 0 0 0 0 0 0 0 0 0 1 1 1 1 0 0 0 0 0 0 1 1 0 0 0 0 0 0 0 0
2 1 0 0 0 0 0 0 0 0 0 0 0 0 0 0 0 0 0 0 0 0 0 0 0 0 0 0 0 0 0 0 0 0 0 0 0 0 0 1 1 0 0 0 0 0 0 0 0
1 0 0 0 0 0 0 0 0 0 0 0 0 0 0 0 0 0 0 0 0 0 0 0 0 0 0 0 0 0 0 0 0 0 0 0 0 0 1 1 1 1 0 0 0 0 0 0 0
0 0 0 0 0 0 0 0 0 0 0 0 0 0 0 0 0 0 0 0 0 0 0 0 0 0 0 0 0 0 0 0 0 0 0 0 0 0 1 2 3 2 1 0 0 0 0 0 0
0 0 0 0 0 0 0 0 0 0 0 0 0 0 0 0 0 0 0 0 0 0 0 0 0 0 0 0 0 0 0 0 0 0 0 0 0 0 1 2 3 2 1 0 0 0 0 0 0
0 0 0 0 1 1 0 0 0 0 0 0 0 0 0 0 0 0 0 0 0 0 0 0 0 1 1 1 0 0 0 0 0 1 1 1 2 1 0 1 1 2 1 0 0 0 0 0 0
0 0 0 0 0 1 1 1 0 0 0 0 0 0 0 0 0 0 0 0 0 0 1 1 1 1 2 1 1 0 1 1 1 2 3 3 3 2 0 0 0 1 1 0 0 0 0 0 0
0 0 0 0 0 1 1 1 0 0 0 0 0 0 0 0 0 0 0 0 0 0 1 3 3 3 3 3 2 1 2 3 3 3 4 4 3 2 1 0 0 0 0 0 0 0 0 0 0
0 0 0 0 0 0 0 0 0 0 0 0 0 0 0 0 0 0 0 0 1 1 2 4 5 5 5 5 4 2 2 3 3 3 3 4 3 2 2 2 1 0 0 0 0 0 0 0 0
0 0 0 0 0 0 0 0 0 0 0 0 0 0 0 0 0 0 0 0 1 2 3 4 6 6 6 5 5 4 3 3 3 3 3 3 3 3 3 3 2 2 2 1 1 1 0 0 0
0 0 0 0 0 0 0 0 0 0 0 0 0 0 0 0 1 1 1 0 1 2 3 3 4 5 4 4 4 4 3 3 3 3 3 3 3 3 3 3 3 3 3 3 2 2 1 0 0
0 0 0 0 0 0 0 0 0 0 0 0 0 0 0 0 1 2 2 1 0 1 1 2 2 2 3 3 3 3 3 3 3 3 3 3 3 3 3 3 3 3 3 3 3 3 2 1 0
0 0 0 0 0 0 0 0 0 0 0 0 0 1 1 1 1 2 3 2 1 0 0 1 1 2 2 3 3 3 3 3 3 3 3 3 3 3 3 3 3 3 3 3 3 3 2 1 0
0 0 0 0 0 0 0 0 0 0 0 0 0 1 2 1 0 2 4 4 3 1 1 1 1 2 3 3 3 3 3 3 3 3 3 3 3 3 3 3 3 3 3 3 3 2 1 0 0
1 1 1 0 0 0 0 0 0 0 0 0 1 2 3 2 1 2 6 7 6 4 3 3 2 2 3 4 4 3 4 3 3 3 3 3 3 3 3 3 3 3 3 3 3 1 0 0 0
1 2 1 0 0 0 0 0 0 0 0 0 1 2 3 3 2 3 7 9 8 7 5 4 3 2 2 3 3 3 4 3 3 3 3 3 3 3 3 3 3 3 3 3 2 1 0 0 0
1 1 1 0 0 0 0 0 0 0 0 0 1 2 4 4 4 4 6 8 8 7 6 5 4 1 1 2 3 3 3 3 3 3 3 3 3 3 3 3 3 3 3 3 1 0 0 0 0
0 0 0 0 0 0 0 0 0 0 0 0 0 1 4 5 5 5 6 6 6 6 7 7 5 2 2 3 3 3 3 3 3 3 3 3 3 3 3 3 3 3 3 2 1 0 0 0 0
0 0 0 0 0 0 0 0 0 0 0 0 0 1 4 6 6 6 6 6 6 7 8 9 7 4 3 4 4 3 3 3 3 3 3 3 3 3 3 3 3 3 3 2 1 0 0 0 0
0 0 0 0 0 0 0 0 0 0 0 0 0 1 4 5 5 5 6 7 8 8 8 8 7 4 3 5 5 4 3 3 3 3 3 3 3 3 3 3 3 3 3 1 0 0 0 0 0
0 0 0 0 0 0 0 0 0 0 0 0 1 2 3 4 3 3 5 7 8 7 7 7 6 4 2 4 5 4 3 3 3 3 3 3 3 3 3 3 3 3 2 1 0 0 0 0 0
Wind_Speed
9 10 7 2 2 1 4 6 7 6 7 8 7 9 11 12 8 7 2 3 5 7 9 9 10 10 9 8 8 9 9 9 9 9 9 9 10 10 10 9 9 8 8 8 7 7 7 7 7
10 6 4 3 2 1 5 6 8 9 7 4 7 10 12 11 10 8 4 3 6 8 9 9 10 10 9 9 9 9 9 9 9 9 9 9 10 10 10 10 9 9 9 9 9 8 7 7 7
12 7 3 2 1 4 6 7 7 8 5 5 8 11 10 7 9 6 4 5 7 9 10 9 10 9 9 9 9 9 9 9 9 9 10 10 10 10 10 10 10 10 9 10 10 9 8 8 8
5 3 3 0 4 7 7 7 6 6 5 7 8 10 10 9 7 7 6 6 8 9 10 9 10 9 9 9 9 9 9 10 9 10 10 10 10 10 10 10 10 10 10 10 10 9 9 8 8
4 3 1 2 5 7 6 6 6 6 6 9 11 11 10 9 10 9 7 7 7 9 9 9 10 9 9 9 9 9 9 10 10 10 10 10 10 10 10 10 10 10 10 9 9 9 8 8 9
3 2 1 3 5 6 6 5 6 7 7 8 10 10 8 8 8 7 7 5 7 8 9 9 9 9 9 9 10 10 10 10 9 9 10 10 10 10 10 9 9 10 9 9 9 8 7 7 7
2 2 1 4 5 5 5 5 6 6 6 7 8 9 8 8 6 7 6 5 6 7 8 8 7 7 9 9 10 9 9 9 8 8 8 8 9 10 10 9 9 9 8 8 8 7 7 6 6
3 2 2 3 5 4 4 5 5 6 5 6 5 7 7 8 7 7 5 5 6 6 6 7 8 7 7 6 8 8 7 7 6 6 6 6 7 8 9 9 8 8 8 7 6 6 6 5 5
4 1 2 2 3 4 4 4 5 5 6 7 8 10 10 11 8 7 5 5 5 5 5 6 6 6 6 6 7 6 6 5 5 4 4 4 3 4 5 8 8 7 6 6 5 5 4 4 3
1 1 2 1 3 4 4 4 4 4 5 7 9 11 10 9 7 6 6 5 5 5 5 5 5 5 5 5 5 3 3 3 3 2 3 2 2 3 5 6 6 5 4 3 3 3 2 1 1
1 1 2 2 4 3 3 4 3 4 4 6 8 9 9 8 6 6 6 6 5 5 4 4 5 5 5 3 3 1 1 1 1 1 2 2 3 3 3 3 3 2 3 1 1 1 1 1 2
2 2 2 2 2 1 2 2 3 4 4 6 8 8 7 6 5 6 6 7 6 6 4 4 4 5 5 3 2 2 1 1 1 1 3 2 1 2 2 2 2 2 1 1 1 1 2 3 3
2 2 2 2 2 1 2 2 3 4 5 6 9 9 6 5 5 4 6 7 7 6 5 4 4 5 4 3 1 3 2 1 2 1 2 3 2 2 2 2 2 2 2 2 2 2 4 4 4
1 2 2 3 3 3 3 3 3 5 6 6 8 8 6 5 5 4 5 6 7 7 6 4 5 4 4 3 2 2 2 2 2 1 2 3 2 2 3 3 3 2 2 2 2 3 4 3 3
3 3 4 4 5 4 2 2 4 6 6 7 7 8 7 6 5 4 5 5 6 7 7 5 4 4 4 4 3 2 2 2 2 2 2 3 3 3 4 3 2 2 2 3 3 4 3 3 3
5 5 4 5 5 5 3 2 5 7 7 6 6 7 7 6 5 5 5 5 5 6 7 6 4 4 4 3 3 2 3 3 2 2 3 3 4 4 4 3 2 2 2 2 2 2 2 3 3
6 5 6 6 5 5 5 3 4 6 7 6 5 7 7 7 5 5 6 5 5 6 6 7 5 4 4 3 3 3 3 2 2 3 3 4 4 4 4 2 2 3 3 2 2 3 2 2 2
5 5 5 5 6 5 4 4 5 6 6 5 5 5 6 6 5 5 6 6 5 5 6 7 5 4 4 2 3 2 3 2 3 3 3 3 3 4 3 2 3 3 3 3 3 3 2 1 1
6 6 5 2 4 4 4 4 6 6 5 4 4 5 5 6 6 6 6 6 5 5 5 6 6 5 4 2 2 2 2 1 2 2 3 2 2 3 3 3 3 3 2 2 2 2 2 1 1
8 7 5 2 3 3 3 4 6 8 7 5 5 4 4 5 7 6 7 6 4 3 3 5 6 5 5 2 2 2 2 2 2 1 2 2 3 3 2 3 2 2 2 2 3 2 1 1 1
8 6 5 5 3 4 4 4 5 7 6 5 5 5 5 5 7 8 7 6 5 4 3 3 5 6 5 4 2 2 2 1 1 1 1 2 2 2 2 2 2 2 2 2 2 2 2 1 1
6 4 6 7 6 4 6 3 4 7 6 6 5 5 5 5 6 7 7 7 6 4 3 3 4 4 5 4 3 3 2 1 1 1 1 1 1 2 2 2 1 1 2 2 1 2 1 1 1
5 5 7 8 7 7 6 4 3 6 6 6 6 5 5 5 5 6 6 6 5 4 3 2 3 4 4 4 4 3 2 1 1 1 2 1 1 1 1 1 1 1 1 2 2 2 1 1 0
6 7 9 8 6 8 8 5 2 4 5 6 6 6 5 5 5 6 6 6 5 5 4 3 3 3 3 3 3 3 3 2 1 2 1 1 1 1 2 1 1 1 1 1 2 2 1 1 0
8 6 4 5 6 6 5 4 2 4 4 4 5 5 6 6 5 6 6 6 6 6 5 4 4 3 3 2 2 3 2 2 2 1 1 1 1 1 2 2 1 1 1 1 1 1 1 2 1
7 8 5 4 4 3 4 3 4 6 5 4 4 4 6 6 6 5 6 5 6 6 4 4 4 3 2 1 1 2 2 2 1 1 1 1 0 1 1 1 1 1 1 1 1 1 2 1 1
7 7 7 7 8 5 3 5 6 6 6 5 5 4 5 6 6 5 5 5 6 6 5 4 4 3 3 2 1 1 2 2 1 1 2 1 0 0 0 0 1 1 1 1 1 1 1 1 1
8 7 5 5 4 5 4 5 6 8 6 5 5 5 4 5 5 5 5 4 4 6 5 4 3 3 3 2 1 1 0 1 1 1 1 1 0 0 1 1 1 1 2 2 2 1 1 1 1
7 8 7 5 5 4 3 0 3 7 6 5 5 5 4 4 4 4 4 4 4 5 5 4 3 2 2 2 1 1 1 1 1 1 1 1 0 0 0 1 1 1 1 1 2 2 1 1 2
7 8 7 5 5 5 4 0 5 6 5 5 4 5 5 4 4 4 4 4 4 4 3 3 3 2 2 2 1 1 1 0 1 1 1 0 0 0 1 1 1 1 0 1 2 2 2 2 3
Wind_Direction
254 242 238 240 259 223 64 65 65 54 56 47 47 56 63 52 47 81 98 64 77 91 94 79 66 64 61 59 62 65 64 63 62 63 63 65 64 61 59 62 62 62 59 59 63 72 79 78 80
270 263 261 233 246 85 77 71 70 63 64 63 64 64 71 65 72 91 91 72 81 84 81 78 72 68 66 63 65 68 67 65 64 64 64 66 67 65 62 62 62 65 64 63 62 69 75 75 73
261 261 257 247 30 71 85 79 81 75 65 67 73 63 57 66 74 89 105 97 85 83 84 84 77 72 71 69 69 71 70 68 67 68 66 68 71 72 68 67 66 68 68 66 64 64 66 69 65
258 249 246 323 71 70 84 96 96 86 68 69 76 76 68 61 82 104 111 97 92 92 91 93 90 84 78 75 75 75 73 72 71 70 68 69 72 73 73 70 69 70 71 71 68 65 61 64 64
235 244 208 91 80 82 82 84 84 82 70 71 79 87 84 79 94 104 103 98 97 101 102 100 98 95 88 82 81 80 78 76 75 74 73 73 74 77 76 72 71 73 75 75 75 73 64 62 62
264 248 149 99 86 85 78 69 76 79 79 86 96 100 98 106 105 106 103 100 101 103 107 105 103 100 95 90 88 86 84 82 81 79 78 77 77 78 79 75 72 74 76 75 75 76 72 66 63
288 306 64 99 94 79 75 62 64 72 68 70 91 100 110 111 112 113 110 102 99 105 114 122 117 105 99 97 98 95 94 93 92 90 88 87 87 87 84 80 74 74 75 77 76 77 78 77 74
285 310 47 83 100 85 78 76 69 76 71 68 79 102 119 123 123 117 120 114 108 106 110 119 128 126 122 111 108 109 109 111 111 110 112 109 101 99 97 90 83 81 80 81 83 87 91 92 88
278 327 49 64 104 106 97 91 89 90 92 85 79 93 115 128 133 135 132 120 113 114 116 115 121 126 125 125 123 134 137 140 145 152 162 152 138 125 107 98 101 95 91 89 94 101 108 108 109
230 69 102 66 96 112 115 109 115 118 108 100 98 104 119 133 144 144 137 127 126 124 118 119 116 118 115 110 131 153 152 156 178 172 152 151 106 94 102 113 115 116 113 112 120 131 128 136 129
123 114 94 62 77 103 118 116 103 104 107 112 121 127 135 146 150 140 133 132 125 111 102 117 122 116 107 104 116 113 109 131 160 125 114 107 105 124 126 141 145 154 160 145 134 172 177 106 87
121 117 122 107 89 121 124 122 111 106 109 119 126 130 137 150 144 140 132 125 122 119 116 106 109 113 115 114 117 119 109 104 74 66 86 88 87 94 102 115 128 129 104 74 74 38 69 80 87
142 146 131 139 176 170 153 146 119 118 118 132 133 135 146 147 135 129 129 130 129 127 122 108 105 104 108 107 117 105 89 68 83 55 79 90 90 110 112 98 96 89 76 64 50 43 48 46 53
161 166 168 181 182 194 186 157 154 141 144 147 143 149 159 147 139 132 126 125 128 131 126 122 119 114 120 120 106 102 114 105 80 48 72 88 82 92 95 89 79 80 72 69 74 64 59 46 51
204 205 193 193 196 191 189 189 184 153 163 164 160 154 155 150 147 146 130 129 130 130 125 119 120 115 106 98 88 97 82 78 78 56 54 78 78 71 75 75 78 78 72 60 60 64 63 63 59
214 211 221 205 194 171 192 215 180 156 173 172 170 157 157 156 159 148 135 134 131 130 126 123 112 104 97 95 90 76 71 60 61 56 34 48 68 73 73 71 70 76 75 73 71 69 68 64 62
233 226 217 199 184 183 195 189 161 170 178 179 177 162 159 157 161 150 143 137 128 126 129 129 120 113 103 97 96 71 72 61 58 55 46 33 40 68 74 61 60 66 64 63 59 59 63 69 68
246 238 229 198 181 192 205 197 177 180 187 182 170 167 160 161 157 143 140 131 122 123 126 126 121 120 110 94 94 81 65 51 56 58 58 39 41 61 72 73 67 62 63 58 61 62 52 59 72
278 280 270 222 172 188 222 217 187 174 185 190 180 174 169 159 143 130 129 129 131 132 139 134 134 129 112 96 98 100 92 70 62 59 64 46 55 64 67 63 65 60 70 70 75 79 59 38 62
268 266 265 245 200 204 220 224 189 174 182 184 183 172 170 154 143 138 138 128 122 124 135 138 132 121 114 109 111 119 110 96 85 58 66 47 56 58 75 82 78 77 76 69 70 76 53 4 37
251 258 276 274 245 230 236 239 209 170 176 178 183 175 168 162 153 152 142 135 136 130 127 116 123 124 127 127 100 88 83 83 73 66 55 45 68 68 58 73 85 104 104 104 101 96 85 43 345
263 270 270 270 265 243 215 231 205 171 175 179 182 177 168 162 152 143 141 143 142 137 134 121 114 120 125 128 119 122 128 134 150 145 147 109 82 87 77 76 68 87 95 109 118 98 93 95 8
271 280 270 265 265 269 240 229 221 164 176 183 179 174 161 153 150 141 137 134 131 128 121 110 102 103 110 121 133 140 138 155 152 144 142 136 127 117 105 112 118 113 121 130 108 103 101 100 110
275 266 254 251 254 249 240 222 206 174 184 173 166 164 157 151 142 131 125 126 131 133 123 113 108 98 99 118 145 147 148 154 149 149 154 162 166 171 160 150 167 178 150 141 141 144 151 174 174
244 256 247 222 220 233 209 208 171 128 139 142 152 156 151 149 144 138 138 143 143 141 139 137 121 114 115 139 158 150 150 158 159 150 166 214 172 174 180 185 204 199 178 165 157 160 189 206 184
244 244 251 264 252 236 199 188 127 121 119 128 133 143 155 148 145 143 142 143 143 142 146 148 137 137 139 170 171 159 151 147 141 151 150 163 154 209 173 198 195 193 191 177 156 180 217 197 174
255 247 260 277 282 277 221 161 135 140 139 135 131 131 132 137 139 137 138 145 150 153 158 157 148 153 155 162 140 144 140 146 149 168 142 128 185 267 47 236 203 185 179 193 159 197 232 210 184
259 278 272 256 274 263 233 207 174 163 151 145 139 128 123 127 134 137 138 144 150 149 154 155 155 157 154 148 159 113 144 155 166 158 117 150 203 360 303 291 272 210 197 193 169 196 238 208 209
227 245 253 265 263 272 262 147 93 141 138 142 138 127 122 119 127 131 130 131 131 135 143 147 153 149 138 140 141 152 169 160 148 138 130 179 148 272 266 273 284 277 236 199 160 178 209 221 232
248 251 253 253 263 269 272 123 89 112 128 128 124 116 111 104 106 117 119 118 113 119 135 143 145 146 147 142 133 160 136 146 139 120 123 96 134 282 294 290 290 284 210 185 180 208 206 213 226